TimeHST,TemperatureF,Dew PointF,Humidity,Sea Level PressureIn,VisibilityMPH,Wind Direction,Wind SpeedMPH,Gust SpeedMPH,PrecipitationIn,Events,Conditions,WindDirDegrees,DateUTC
12:58 AM,60.1,55.0,83,30.01,10.0,NNW,5.8,-,N/A,,Clear,330,2014-01-06 10:58:00
1:58 AM,57.9,53.4,85,30.00,10.0,NW,4.6,-,N/A,,Clear,320,2014-01-06 11:58:00
2:58 AM,58.3,54.1,86,30.00,10.0,WNW,5.8,-,N/A,,Clear,290,2014-01-06 12:58:00
3:58 AM,57.6,52.9,84,30.00,10.0,WNW,6.9,-,N/A,,Clear,290,2014-01-06 13:58:00
4:58 AM,58.5,53.2,83,30.01,10.0,WNW,4.6,-,N/A,,Clear,300,2014-01-06 14:58:00
5:58 AM,61.2,54.7,79,30.01,10.0,NNW,6.9,-,N/A,,Clear,330,2014-01-06 15:58:00
6:58 AM,59.2,54.1,83,30.02,10.0,WNW,6.9,-,N/A,,Partly Cloudy,300,2014-01-06 16:58:00
7:58 AM,59.7,55.0,84,30.05,10.0,WNW,4.6,-,N/A,,Clear,300,2014-01-06 17:58:00
8:58 AM,67.1,56.1,68,30.06,10.0,North,5.8,-,N/A,,Clear,350,2014-01-06 18:58:00
9:58 AM,69.8,55.9,61,30.07,10.0,NNE,10.4,-,N/A,,Clear,20,2014-01-06 19:58:00
10:58 AM,71.1,54.7,56,30.06,10.0,NNE,11.5,18.4,N/A,,Scattered Clouds,20,2014-01-06 20:58:00
11:58 AM,71.4,53.8,54,30.05,10.0,NNE,13.8,-,N/A,,Clear,30,2014-01-06 21:58:00
12:58 PM,72.9,56.7,57,30.02,10.0,North,15.0,20.7,N/A,,Partly Cloudy,350,2014-01-06 22:58:00
1:04 PM,71.6,55.4,57,30.03,10.0,NNE,12.7,20.7,N/A,,Scattered Clouds,30,2014-01-06 23:04:00
1:58 PM,73.6,52.7,48,30.00,10.0,NNE,15.0,23.0,N/A,,Clear,30,2014-01-06 23:58:00
2:58 PM,73.4,53.2,49,29.99,10.0,ENE,13.8,18.4,N/A,,Clear,60,2014-01-07 00:58:00
3:58 PM,72.0,53.1,51,30.00,10.0,NNE,11.5,-,N/A,,Clear,20,2014-01-07 01:58:00
4:58 PM,71.1,53.6,54,30.03,10.0,NE,12.7,-,N/A,,Clear,40,2014-01-07 02:58:00
5:58 PM,68.4,53.4,59,30.06,10.0,North,6.9,-,N/A,,Clear,10,2014-01-07 03:58:00
6:58 PM,66.2,53.6,64,30.06,10.0,North,8.1,-,N/A,,Clear,360,2014-01-07 04:58:00
7:58 PM,65.1,53.2,65,30.07,10.0,Variable,5.8,-,N/A,,Clear,0,2014-01-07 05:58:00
8:58 PM,60.8,51.8,72,30.07,10.0,NNW,4.6,-,N/A,,Partly Cloudy,340,2014-01-07 06:58:00
9:58 PM,64.2,54.3,70,30.07,10.0,North,6.9,-,N/A,,Clear,350,2014-01-07 07:58:00
10:58 PM,64.9,54.3,68,30.07,10.0,North,6.9,-,N/A,,Partly Cloudy,350,2014-01-07 08:58:00
11:58 PM,64.6,54.0,68,30.06,10.0,North,5.8,-,N/A,,Clear,350,2014-01-07 09:58:00